Volver al catálogo

FENGYUN 1C DEB

ActivoSSO
NORAD 30662·DEBRIS·🇨🇳 China

Lanzado May 10, 1999 desde Taiyuan Satellite Launch Center

Loading…

Próximos Pases (próximas 24 horas)

TLE

ActualizadoSource: Space-Track

Época: Sep 14, 2026, 03:18 UTC

1 30662U 99025APU 26257.13794336  .00001775  00000-0  79166-3 0  9992
2 30662  99.0334 325.7960 0033536 200.0375 190.2736 14.23800912  5481

Sigue FENGYUN 1C DEB en tiempo real con AllMySat

Download on the App Store